Time,TemperatureF,DewpointF,PressureIn,WindDirection,WindDirectionDegrees,WindSpeedMPH,WindSpeedGustMPH,Humidity,HourlyPrecipIn,Conditions,Clouds,dailyrainin,SoftwareType,DateUTC
2013-05-09 00:11:00,58.0,56.0,29.85,ESE,116,5.0,8.0,94,0.00,,,0.00,weatherlink.com 1.10,2013-05-09 05:11:00,
2013-05-09 00:26:00,57.5,56.0,29.85,ESE,109,2.0,7.0,95,0.00,,,0.00,weatherlink.com 1.10,2013-05-09 05:26:00,
2013-05-09 00:41:00,57.4,56.0,29.85,ESE,109,2.0,4.0,95,0.00,,,0.00,weatherlink.com 1.10,2013-05-09 05:41:00,
2013-05-09 00:56:00,57.4,56.0,29.85,ESE,103,1.0,3.0,96,0.00,,,0.00,weatherlink.com 1.10,2013-05-09 05:56:00,
2013-05-09 01:11:00,57.4,56.0,29.85,ESE,103,1.0,2.0,96,0.00,,,0.00,weatherlink.com 1.10,2013-05-09 06:11:00,
2013-05-09 01:26:00,56.9,56.0,29.85,East,80,1.0,5.0,96,0.00,,,0.00,weatherlink.com 1.10,2013-05-09 06:26:00,
2013-05-09 01:41:00,56.6,56.0,29.85,NNE,26,3.0,5.0,96,0.00,,,0.00,weatherlink.com 1.10,2013-05-09 06:41:00,
2013-05-09 01:56:00,56.7,56.0,29.85,NNE,27,1.0,4.0,96,0.00,,,0.00,weatherlink.com 1.10,2013-05-09 06:56:00,
2013-05-09 02:11:00,56.2,55.0,29.84,NW,322,3.0,5.0,96,0.00,,,0.00,weatherlink.com 1.10,2013-05-09 07:11:00,
2013-05-09 02:26:00,56.0,55.0,29.83,North,360,5.0,7.0,96,0.00,,,0.00,weatherlink.com 1.10,2013-05-09 07:26:00,
2013-05-09 02:41:00,55.9,55.0,29.84,North,5,0.0,1.0,97,0.00,,,0.00,weatherlink.com 1.10,2013-05-09 07:41:00,
2013-05-09 02:56:00,55.9,55.0,29.83,ENE,59,3.0,6.0,97,0.00,,,0.00,weatherlink.com 1.10,2013-05-09 07:56:00,
2013-05-09 03:11:00,55.4,55.0,29.83,ENE,59,2.0,4.0,97,0.00,,,0.00,weatherlink.com 1.10,2013-05-09 08:11:00,
2013-05-09 03:26:00,55.0,54.0,29.82,North,360,3.0,6.0,97,0.00,,,0.00,weatherlink.com 1.10,2013-05-09 08:26:00,
2013-05-09 03:41:00,54.8,54.0,29.82,NNW,344,4.0,7.0,97,0.00,,,0.00,weatherlink.com 1.10,2013-05-09 08:41:00,
2013-05-09 03:56:00,54.7,54.0,29.83,NNW,344,0.0,3.0,97,0.00,,,0.00,weatherlink.com 1.10,2013-05-09 08:56:00,
2013-05-09 04:11:00,54.7,54.0,29.83,NNW,344,0.0,3.0,97,0.00,,,0.00,weatherlink.com 1.10,2013-05-09 09:11:00,
2013-05-09 04:26:00,54.8,54.0,29.83,NNW,344,0.0,0.0,97,0.00,,,0.00,weatherlink.com 1.10,2013-05-09 09:26:00,
2013-05-09 04:41:00,54.9,54.0,29.83,NNW,344,0.0,0.0,97,0.00,,,0.00,weatherlink.com 1.10,2013-05-09 09:41:00,
2013-05-09 04:56:00,54.9,54.0,29.83,NNW,344,0.0,0.0,97,0.00,,,0.00,weatherlink.com 1.10,2013-05-09 09:56:00,
2013-05-09 05:11:00,54.8,54.0,29.84,NNW,344,0.0,2.0,98,0.00,,,0.00,weatherlink.com 1.10,2013-05-09 10:11:00,
2013-05-09 05:26:00,54.6,54.0,29.83,NNW,344,0.0,1.0,98,0.00,,,0.00,weatherlink.com 1.10,2013-05-09 10:26:00,
2013-05-09 05:41:00,54.5,54.0,29.84,NNW,344,0.0,3.0,97,0.00,,,0.00,weatherlink.com 1.10,2013-05-09 10:41:00,
2013-05-09 05:56:00,54.1,54.0,29.84,NW,317,4.0,5.0,98,0.00,,,0.00,weatherlink.com 1.10,2013-05-09 10:56:00,
2013-05-09 06:11:00,53.7,53.0,29.84,NNW,342,3.0,6.0,97,0.00,,,0.00,weatherlink.com 1.10,2013-05-09 11:11:00,
2013-05-09 06:26:00,53.5,53.0,29.84,NNW,327,5.0,8.0,98,0.00,,,0.00,weatherlink.com 1.10,2013-05-09 11:26:00,
2013-05-09 06:41:00,53.2,52.0,29.84,NNW,334,3.0,8.0,97,0.00,,,0.00,weatherlink.com 1.10,2013-05-09 11:41:00,
2013-05-09 06:56:00,53.1,53.0,29.84,NNW,336,4.0,7.0,98,0.00,,,0.00,weatherlink.com 1.10,2013-05-09 11:56:00,
2013-05-09 07:11:00,53.2,53.0,29.85,NNW,342,1.0,6.0,98,0.00,,,0.00,weatherlink.com 1.10,2013-05-09 12:11:00,
2013-05-09 07:26:00,53.4,53.0,29.85,NNE,13,4.0,6.0,98,0.00,,,0.00,weatherlink.com 1.10,2013-05-09 12:26:00,
2013-05-09 07:41:00,53.8,53.0,29.85,NNE,15,4.0,5.0,98,0.00,,,0.00,weatherlink.com 1.10,2013-05-09 12:41:00,
2013-05-09 07:56:00,54.0,54.0,29.85,North,351,4.0,7.0,98,0.00,,,0.00,weatherlink.com 1.10,2013-05-09 12:56:00,
2013-05-09 08:11:00,54.4,54.0,29.85,North,360,3.0,8.0,98,0.00,,,0.00,weatherlink.com 1.10,2013-05-09 13:11:00,
2013-05-09 08:26:00,54.7,54.0,29.86,NNW,348,3.0,9.0,98,0.00,,,0.00,weatherlink.com 1.10,2013-05-09 13:26:00,
2013-05-09 08:41:00,54.8,54.0,29.86,NNW,344,6.0,12.0,98,0.00,,,0.00,weatherlink.com 1.10,2013-05-09 13:41:00,
2013-05-09 08:56:00,54.5,54.0,29.86,NW,326,0.0,10.0,98,0.00,,,0.00,weatherlink.com 1.10,2013-05-09 13:56:00,
2013-05-09 09:11:00,55.0,55.0,29.87,NW,326,0.0,7.0,98,0.00,,,0.00,weatherlink.com 1.10,2013-05-09 14:11:00,
2013-05-09 09:26:00,55.3,55.0,29.88,NNE,16,1.0,8.0,98,0.00,,,0.00,weatherlink.com 1.10,2013-05-09 14:26:00,
2013-05-09 09:41:00,55.3,55.0,29.88,North,355,2.0,7.0,98,0.00,,,0.00,weatherlink.com 1.10,2013-05-09 14:41:00,
2013-05-09 09:56:00,55.5,55.0,29.88,North,350,5.0,7.0,98,0.00,,,0.00,weatherlink.com 1.10,2013-05-09 14:56:00,
2013-05-09 10:11:00,55.4,55.0,29.89,NNW,327,5.0,8.0,98,0.00,,,0.00,weatherlink.com 1.10,2013-05-09 15:11:00,
2013-05-09 10:26:00,55.4,55.0,29.89,WNW,295,4.0,9.0,98,0.00,,,0.00,weatherlink.com 1.10,2013-05-09 15:26:00,
2013-05-09 10:41:00,55.7,55.0,29.89,NW,315,3.0,8.0,98,0.00,,,0.00,weatherlink.com 1.10,2013-05-09 15:41:00,
2013-05-09 10:56:00,55.8,55.0,29.89,NW,315,5.0,10.0,98,0.00,,,0.00,weatherlink.com 1.10,2013-05-09 15:56:00,
2013-05-09 11:11:00,55.8,55.0,29.90,WNW,292,5.0,10.0,98,0.00,,,0.00,weatherlink.com 1.10,2013-05-09 16:11:00,
2013-05-09 11:27:00,56.1,56.0,29.90,NW,325,5.0,8.0,98,0.00,,,0.00,weatherlink.com 1.10,2013-05-09 16:27:00,
2013-05-09 11:42:00,57.2,56.0,29.90,NNW,338,0.0,8.0,97,0.00,,,0.00,weatherlink.com 1.10,2013-05-09 16:42:00,
2013-05-09 11:57:00,57.8,56.0,29.90,WNW,302,5.0,7.0,95,0.00,,,0.00,weatherlink.com 1.10,2013-05-09 16:57:00,
2013-05-09 12:12:00,57.8,56.0,29.90,WNW,292,2.0,10.0,94,0.00,,,0.00,weatherlink.com 1.10,2013-05-09 17:12:00,
2013-05-09 12:27:00,58.1,56.0,29.90,WNW,299,6.0,10.0,93,0.00,,,0.00,weatherlink.com 1.10,2013-05-09 17:27:00,
2013-05-09 12:42:00,58.6,56.0,29.90,WNW,299,3.0,11.0,91,0.00,,,0.00,weatherlink.com 1.10,2013-05-09 17:42:00,
2013-05-09 12:57:00,59.8,57.0,29.90,NW,304,8.0,11.0,90,0.00,,,0.00,weatherlink.com 1.10,2013-05-09 17:57:00,
2013-05-09 13:12:00,60.4,57.0,29.89,WNW,288,6.0,11.0,88,0.00,,,0.00,weatherlink.com 1.10,2013-05-09 18:12:00,
2013-05-09 13:27:00,61.3,57.0,29.89,NW,309,7.0,13.0,84,0.00,,,0.00,weatherlink.com 1.10,2013-05-09 18:27:00,
2013-05-09 13:42:00,62.2,57.0,29.89,NNW,339,6.0,14.0,83,0.00,,,0.00,weatherlink.com 1.10,2013-05-09 18:42:00,
2013-05-09 13:57:00,62.6,56.0,29.89,WNW,283,3.0,10.0,80,0.00,,,0.00,weatherlink.com 1.10,2013-05-09 18:57:00,
2013-05-09 14:12:00,63.6,57.0,29.88,West,279,5.0,11.0,80,0.00,,,0.00,weatherlink.com 1.10,2013-05-09 19:12:00,
2013-05-09 14:27:00,64.3,58.0,29.88,WNW,290,4.0,13.0,79,0.00,,,0.00,weatherlink.com 1.10,2013-05-09 19:27:00,
2013-05-09 14:42:00,64.9,57.0,29.87,WNW,289,5.0,12.0,75,0.00,,,0.00,weatherlink.com 1.10,2013-05-09 19:42:00,
2013-05-09 14:57:00,65.8,57.0,29.87,WNW,290,9.0,13.0,73,0.00,,,0.00,weatherlink.com 1.10,2013-05-09 19:57:00,
2013-05-09 15:12:00,66.2,56.0,29.87,WNW,291,7.0,14.0,69,0.00,,,0.00,weatherlink.com 1.10,2013-05-09 20:12:00,
2013-05-09 15:27:00,67.5,57.0,29.86,West,269,9.0,12.0,69,0.00,,,0.00,weatherlink.com 1.10,2013-05-09 20:27:00,
2013-05-09 15:42:00,66.2,56.0,29.86,WNW,284,7.0,20.0,69,0.00,,,0.00,weatherlink.com 1.10,2013-05-09 20:42:00,
2013-05-09 15:57:00,66.3,57.0,29.86,West,273,8.0,15.0,72,0.00,,,0.00,weatherlink.com 1.10,2013-05-09 20:57:00,
2013-05-09 16:12:00,67.4,57.0,29.85,West,263,6.0,19.0,69,0.00,,,0.00,weatherlink.com 1.10,2013-05-09 21:12:00,
2013-05-09 16:27:00,63.7,57.0,29.86,NW,318,5.0,24.0,78,0.01,,,0.01,weatherlink.com 1.10,2013-05-09 21:27:00,
2013-05-09 16:42:00,59.0,56.0,29.87,NNE,13,11.0,18.0,89,0.01,,,0.01,weatherlink.com 1.10,2013-05-09 21:42:00,
2013-05-09 16:57:00,58.0,56.0,29.88,NW,315,4.0,17.0,94,0.02,,,0.02,weatherlink.com 1.10,2013-05-09 21:57:00,
2013-05-09 17:12:00,57.9,56.0,29.88,North,11,4.0,11.0,94,0.04,,,0.04,weatherlink.com 1.10,2013-05-09 22:12:00,
2013-05-09 17:27:00,58.0,57.0,29.88,NNW,327,3.0,9.0,95,0.06,,,0.07,weatherlink.com 1.10,2013-05-09 22:27:00,
2013-05-09 17:42:00,58.0,57.0,29.89,NNW,327,10.0,11.0,95,0.08,,,0.09,weatherlink.com 1.10,2013-05-09 22:42:00,
2013-05-09 17:57:00,57.9,56.0,29.89,NW,319,7.0,15.0,94,0.07,,,0.09,weatherlink.com 1.10,2013-05-09 22:57:00,
2013-05-09 18:12:00,58.1,56.0,29.89,NW,324,5.0,10.0,94,0.05,,,0.10,weatherlink.com 1.10,2013-05-09 23:12:00,
2013-05-09 18:27:00,58.5,57.0,29.89,West,277,6.0,8.0,95,0.03,,,0.10,weatherlink.com 1.10,2013-05-09 23:27:00,
2013-05-09 18:42:00,58.6,57.0,29.89,NW,323,5.0,10.0,95,0.01,,,0.10,weatherlink.com 1.10,2013-05-09 23:42:00,
2013-05-09 18:57:00,58.6,57.0,29.90,NW,313,1.0,10.0,94,0.01,,,0.10,weatherlink.com 1.10,2013-05-09 23:57:00,
2013-05-09 19:12:00,58.6,57.0,29.90,North,351,3.0,11.0,94,0.00,,,0.10,weatherlink.com 1.10,2013-05-10 00:12:00,
2013-05-09 19:27:00,58.5,57.0,29.90,NNW,329,9.0,10.0,93,0.00,,,0.10,weatherlink.com 1.10,2013-05-10 00:27:00,
2013-05-09 19:42:00,58.4,56.0,29.91,WNW,292,4.0,12.0,93,0.00,,,0.10,weatherlink.com 1.10,2013-05-10 00:42:00,
2013-05-09 19:57:00,57.8,56.0,29.91,North,355,4.0,14.0,93,0.00,,,0.10,weatherlink.com 1.10,2013-05-10 00:57:00,
2013-05-09 20:12:00,57.5,56.0,29.91,North,349,4.0,10.0,94,0.00,,,0.10,weatherlink.com 1.10,2013-05-10 01:12:00,
2013-05-09 20:27:00,57.3,56.0,29.92,WNW,290,4.0,8.0,94,0.00,,,0.10,weatherlink.com 1.10,2013-05-10 01:27:00,
2013-05-09 20:42:00,57.1,55.0,29.92,North,351,5.0,12.0,94,0.00,,,0.10,weatherlink.com 1.10,2013-05-10 01:42:00,
2013-05-09 20:57:00,56.8,55.0,29.93,NW,306,2.0,11.0,94,0.00,,,0.10,weatherlink.com 1.10,2013-05-10 01:57:00,
2013-05-09 21:12:00,56.7,55.0,29.93,WNW,302,6.0,9.0,95,0.00,,,0.10,weatherlink.com 1.10,2013-05-10 02:12:00,
2013-05-09 21:27:00,56.8,55.0,29.93,NNW,346,6.0,11.0,95,0.00,,,0.10,weatherlink.com 1.10,2013-05-10 02:27:00,
2013-05-09 21:42:00,57.2,56.0,29.94,WNW,286,8.0,12.0,94,0.00,,,0.10,weatherlink.com 1.10,2013-05-10 02:42:00,
2013-05-09 21:57:00,57.3,55.0,29.94,NNW,334,6.0,12.0,93,0.00,,,0.10,weatherlink.com 1.10,2013-05-10 02:57:00,
2013-05-09 22:12:00,57.3,55.0,29.95,NNW,334,6.0,11.0,92,0.00,,,0.10,weatherlink.com 1.10,2013-05-10 03:12:00,
2013-05-09 22:28:00,57.4,55.0,29.95,North,355,7.0,12.0,92,0.00,,,0.10,weatherlink.com 1.10,2013-05-10 03:28:00,
2013-05-09 22:43:00,57.3,55.0,29.95,NNW,348,2.0,14.0,92,0.00,,,0.10,weatherlink.com 1.10,2013-05-10 03:43:00,
2013-05-09 22:58:00,56.9,54.0,29.96,NNW,340,4.0,14.0,91,0.00,,,0.10,weatherlink.com 1.10,2013-05-10 03:58:00,
2013-05-09 23:13:00,56.0,54.0,29.96,NE,34,7.0,13.0,91,0.00,,,0.10,weatherlink.com 1.10,2013-05-10 04:13:00,
2013-05-09 23:28:00,54.9,52.0,29.97,North,5,8.0,15.0,89,0.00,,,0.10,weatherlink.com 1.10,2013-05-10 04:28:00,
2013-05-09 23:43:00,54.0,51.0,29.97,NNE,26,5.0,16.0,90,0.00,,,0.10,weatherlink.com 1.10,2013-05-10 04:43:00,
2013-05-09 23:58:00,53.2,51.0,29.97,North,9,3.0,13.0,91,0.00,,,0.10,weatherlink.com 1.10,2013-05-10 04:58:00,